Location: Summit Observatory
(39.5293°N, 75.7290°W)
Time: 14:49:54
(UTC-05:00)

XW-2F - Pass Details

Date: 30 October 2019
Orbit: 503 x 523 km, 97.5° (Epoch: 22 November)

Event Time Altitude Azimuth Distance (km) Brightness Sun altitude
Rises 05:59:18 0° 37° (NE) 2,611 ? -17.7°
Reaches altitude 10° 06:02:52 10° 74° (ENE) 1,723 ? -17.1°
Maximum altitude 06:03:59 11° 91° (E) 1,652 ? -16.8°
Drops below altitude 10° 06:05:06 10° 109° (ESE) 1,721 ? -16.6°
Sets 06:08:39 0° 146° (SE) 2,604 ? -16.0°
